Waarnemingen

Advertentie
Mijn weer
F16-A, Nederland (6206): temperatuur & dauwpunt: 18.02.2017 09:00:00 - 24.02.2017 09:00:00 (CET)F16-A, Nederland (6206): windsnelheid & windstoten: 18.02.2017 09:00:00 - 24.02.2017 09:00:00 (CET)F16-A, Nederland (6206): windrichting: 18.02.2017 09:00:00 - 24.02.2017 09:00:00 (CET)F16-A, Nederland (6206): luchtdruk: 18.02.2017 09:00:00 - 24.02.2017 09:00:00 (CET)F16-A, Nederland (6206): zicht: 18.02.2017 09:00:00 - 24.02.2017 09:00:00 (CET)
Datum & Tijd tt [°C] td [°C] ff [km/u] ff [kn] fx [km/u] fx [kn] dd ppp [hPa] vv [km]
24.02.2017 09:00:00 5,5 0,1 41 22 54 29 NW 1008,9 10
24.02.2017 08:00:00 5,4 0,0 37 20 43 23 WNW 1007,7 10
24.02.2017 07:00:00 5,4 0,2 35 19 61 33 NW 1006,5 10
24.02.2017 06:00:00 4,9 0,7 48 26 50 27 NW 1005,5 10
24.02.2017 05:00:00 4,7 0,2 50 27 54 29 NW 1003,7 10
24.02.2017 04:00:00 3,7 0,6 52 28 61 33 NW 1002,4 10
24.02.2017 03:00:00 3,0 1,3 54 29 61 33 NW 1000,8 10
24.02.2017 02:00:00 2,8 1,9 52 28 65 35 NNW 999,0 10
24.02.2017 01:00:00 2,5 1,9 63 34 68 37 NW 996,8 10
24.02.2017 00:00:00 3,8 3,1 61 33 68 37 N 995,3 10
23.02.2017 23:00:00 3,6 2,9 70 38 76 41 NNW 992,8 10
23.02.2017 22:00:00 3,5 2,9 74 40 83 45 NNW 990,7 10
23.02.2017 21:00:00 3,9 3,3 85 46 86 47 NNW 987,3 10
23.02.2017 20:00:00 3,9 2,9 74 40 76 41 N 982,4 9
23.02.2017 19:00:00 7,0 5,1 31 17 36 19 W 979,7 10
23.02.2017 18:00:00 6,6 4,8 35 19 32 18 W 978,1 10
23.02.2017 17:00:00 5,8 3,9 31 17 36 19 W 976,5 10
23.02.2017 16:00:00 5,9 3,7 44 24 54 29 WZW 976,5 10
23.02.2017 15:00:00 6,8 3,9 55 30 58 31 ZW 977,6 7
23.02.2017 14:00:00 7,9 3,8 54 29 61 33 ZW 978,5 10
23.02.2017 13:00:00 8,1 5,6 70 38 83 45 - 979,8 10
23.02.2017 12:00:00 7,2 6,8 58 31 72 39 ZZW 981,6 5
23.02.2017 11:00:00 7,3 6,8 58 31 68 37 ZZW 984,1 7
23.02.2017 10:00:00 7,3 6,9 50 27 58 31 Z 986,5 7
23.02.2017 09:00:00 5,0 4,6 36 19 43 23 ZO 989,0 -
23.02.2017 08:00:00 4,5 2,8 29 16 36 19 ZO 991,5 10
23.02.2017 07:00:00 4,3 1,7 18 10 25 14 ZZO 994,5 11
23.02.2017 06:00:00 5,0 2,2 11 6 22 12 ZZW 996,3 7
23.02.2017 05:00:00 6,1 2,0 14 8 25 14 ZW 997,3 12
23.02.2017 04:00:00 6,5 4,7 18 10 22 12 WZW 998,1 12
23.02.2017 03:00:00 6,7 4,4 22 12 25 14 W 999,1 10
23.02.2017 02:00:00 6,9 4,0 28 15 29 16 W 1000,0 10
23.02.2017 01:00:00 7,0 4,1 34 18 40 21 W 1000,2 10
23.02.2017 00:00:00 7,3 3,6 37 20 40 21 W 1000,3 10
22.02.2017 23:00:00 7,3 3,9 39 21 43 23 W 1000,3 10
22.02.2017 22:00:00 7,6 3,4 41 22 43 23 W 1000,2 10
22.02.2017 21:00:00 7,4 3,8 41 22 47 25 WZW 1000,2 10
22.02.2017 20:00:00 7,6 3,5 41 22 43 23 W 1000,1 10
22.02.2017 19:00:00 7,3 4,0 42 23 43 23 WZW 999,8 10
22.02.2017 18:00:00 7,4 3,6 44 24 47 25 W 999,5 10
22.02.2017 17:00:00 7,5 3,5 46 25 47 25 WZW 999,4 10
22.02.2017 16:00:00 7,3 4,2 44 24 47 25 WZW 999,5 10
22.02.2017 15:00:00 7,3 4,1 46 25 47 25 WZW 999,5 10
22.02.2017 14:00:00 7,2 4,1 44 24 43 23 WZW 999,7 10
22.02.2017 13:00:00 7,1 4,2 42 23 47 25 WZW 999,9 10
22.02.2017 12:00:00 7,6 2,7 42 23 47 25 W 999,8 10
22.02.2017 11:00:00 7,7 2,0 44 24 50 27 W 999,9 10
22.02.2017 10:00:00 7,7 2,9 42 23 47 25 W 999,7 10
22.02.2017 09:00:00 7,9 4,2 42 23 43 23 W 999,5 10
22.02.2017 08:00:00 7,7 4,8 41 22 43 23 W 999,2 10
22.02.2017 07:00:00 8,1 4,8 46 25 65 35 W 998,3 10
22.02.2017 06:00:00 8,5 7,5 61 33 68 37 WZW 998,2 9
22.02.2017 05:00:00 8,1 6,8 55 30 61 33 WZW 997,5 8
22.02.2017 04:00:00 8,4 6,7 65 35 65 35 WZW 997,8 9
22.02.2017 03:00:00 8,6 6,7 61 33 65 35 WZW 998,2 10
22.02.2017 02:00:00 8,2 6,6 63 34 65 35 ZW 998,8 9
22.02.2017 01:00:00 8,4 7,0 65 35 65 35 ZW 999,6 10
22.02.2017 00:00:00 9,0 7,5 65 35 72 39 ZW 1000,2 9
21.02.2017 23:00:00 8,4 7,5 65 35 68 37 ZW 1001,3 4,1
21.02.2017 22:00:00 7,8 7,5 63 34 65 35 ZZW 1002,8 -
21.02.2017 21:00:00 7,2 6,5 59 32 61 33 ZZW 1004,5 8
21.02.2017 20:00:00 6,8 4,9 55 30 54 29 ZZW 1006,3 10
21.02.2017 19:00:00 6,5 4,7 37 20 43 23 - 1007,7 10
21.02.2017 18:00:00 6,3 4,8 31 17 32 18 ZZW 1009,1 10
21.02.2017 17:00:00 6,2 5,0 34 18 32 18 ZW 1010,0 10
21.02.2017 16:00:00 6,5 5,0 31 17 29 16 WZW 1010,9 10
21.02.2017 15:00:00 6,7 5,0 29 16 29 16 WZW 1011,5 10
21.02.2017 14:00:00 7,5 4,8 24 13 29 16 W 1012,1 10
21.02.2017 13:00:00 7,6 5,0 31 17 29 16 W 1012,6 10
21.02.2017 12:00:00 7,7 5,1 28 15 29 16 W 1012,5 10
21.02.2017 11:00:00 8,0 4,9 35 19 43 23 WNW 1012,3 10
21.02.2017 10:00:00 7,8 4,9 39 21 43 23 WNW 1011,9 10
21.02.2017 09:00:00 7,2 4,8 34 18 40 21 W 1011,6 10
21.02.2017 08:00:00 7,2 4,8 41 22 47 25 WNW 1011,1 10
21.02.2017 07:00:00 7,3 5,1 34 18 32 18 W 1010,4 10
21.02.2017 06:00:00 7,3 5,2 37 20 40 21 W 1010,2 10
21.02.2017 05:00:00 7,4 4,9 39 21 40 21 W 1009,9 10
21.02.2017 04:00:00 7,6 5,0 44 24 54 29 WNW 1009,7 10
21.02.2017 03:00:00 7,7 4,9 42 23 43 23 W 1009,7 10
21.02.2017 02:00:00 7,9 5,2 42 23 43 23 W 1009,6 10
21.02.2017 01:00:00 8,1 5,2 41 22 43 23 W 1010,1 10
21.02.2017 00:00:00 8,2 5,1 37 20 47 25 W 1009,6 10
20.02.2017 23:00:00 8,3 5,8 42 23 47 25 WNW 1010,1 10
20.02.2017 22:00:00 8,4 6,4 44 24 43 23 WNW 1010,0 10
20.02.2017 21:00:00 8,3 6,8 37 20 36 19 W 1009,7 10
20.02.2017 20:00:00 8,2 6,8 41 22 43 23 W 1009,3 10
20.02.2017 19:00:00 8,9 7,1 44 24 47 25 W 1009,0 10
20.02.2017 18:00:00 8,9 7,3 46 25 50 27 WZW 1008,2 10
20.02.2017 17:00:00 9,1 7,5 52 28 54 29 WZW 1007,7 10
20.02.2017 16:00:00 9,5 7,8 54 29 54 29 WZW 1007,5 10
20.02.2017 15:00:00 8,8 7,3 52 28 54 29 WZW 1007,6 10
20.02.2017 14:00:00 8,3 7,1 52 28 50 27 WZW 1008,1 10
20.02.2017 13:00:00 9,0 7,6 54 29 54 29 WZW 1008,6 10
20.02.2017 12:00:00 8,6 7,3 48 26 47 25 W 1009,0 10
20.02.2017 11:00:00 8,0 7,2 42 23 47 25 WZW 1009,3 9
20.02.2017 10:00:00 8,1 7,4 42 23 43 23 WZW 1010,2 10
20.02.2017 09:00:00 8,0 7,4 42 23 40 21 WZW 1010,4 9
20.02.2017 08:00:00 7,7 7,0 44 24 43 23 WZW 1010,6 7
20.02.2017 07:00:00 7,5 7,0 44 24 47 25 WZW 1010,6 7
20.02.2017 06:00:00 7,4 7,1 42 23 43 23 WZW 1011,0 -
20.02.2017 05:00:00 7,2 6,5 42 23 43 23 WZW 1011,6 9
20.02.2017 04:00:00 7,0 6,2 44 24 43 23 ZW 1012,1 9
20.02.2017 03:00:00 7,2 6,1 42 23 43 23 ZW 1013,1 10
20.02.2017 02:00:00 7,2 6,0 42 23 40 21 ZW 1014,2 10
20.02.2017 01:00:00 7,3 5,9 42 23 43 23 ZW 1014,9 10
20.02.2017 00:00:00 7,1 5,6 39 21 36 19 ZW 1015,4 10
19.02.2017 23:00:00 7,1 5,8 37 20 36 19 WZW 1016,2 10
19.02.2017 22:00:00 6,9 5,7 31 17 32 18 ZW 1016,8 10
19.02.2017 21:00:00 7,0 5,5 26 14 29 16 WZW 1016,9 10
19.02.2017 20:00:00 7,0 5,6 26 14 25 14 WZW 1017,3 10
19.02.2017 19:00:00 7,0 5,7 24 13 25 14 W 1017,4 10
19.02.2017 18:00:00 6,9 5,7 26 14 25 14 W 1017,2 10
19.02.2017 17:00:00 7,0 5,8 24 13 25 14 W 1017,0 10
19.02.2017 16:00:00 7,4 6,0 26 14 32 18 WNW 1017,3 10
19.02.2017 15:00:00 7,1 5,8 28 15 29 16 W 1017,2 10
19.02.2017 14:00:00 6,9 5,5 28 15 25 14 W 1017,0 10
19.02.2017 13:00:00 6,9 5,8 24 13 25 14 W 1017,1 9
19.02.2017 12:00:00 7,0 5,8 29 16 32 18 W 1017,4 10
19.02.2017 11:00:00 7,6 5,8 31 17 32 18 W 1017,1 10
19.02.2017 10:00:00 7,4 5,8 35 19 36 19 W 1016,8 9
19.02.2017 09:00:00 7,3 5,7 39 21 40 21 W 1016,4 8
19.02.2017 08:00:00 7,2 5,9 39 21 40 21 WZW 1015,9 7
19.02.2017 07:00:00 7,0 5,7 39 21 40 21 WZW 1015,6 8
19.02.2017 06:00:00 7,2 5,7 41 22 40 21 WZW 1015,7 7
19.02.2017 05:00:00 7,0 5,9 41 22 40 21 WZW 1015,9 6
19.02.2017 04:00:00 6,7 5,7 41 22 40 21 ZW 1016,1 5
19.02.2017 03:00:00 6,6 5,6 39 21 40 21 ZW 1016,8 5
19.02.2017 02:00:00 6,5 5,5 37 20 43 23 ZW 1017,7 4,9
19.02.2017 01:00:00 6,5 5,5 46 25 43 23 ZW 1017,7 5
19.02.2017 00:00:00 6,6 5,5 42 23 43 23 ZW 1018,8 5
18.02.2017 23:00:00 6,5 5,6 44 24 43 23 ZW 1019,5 4,9
18.02.2017 22:00:00 6,2 5,6 46 25 47 25 Z 1019,9 4,9
18.02.2017 21:00:00 6,0 5,3 48 26 47 25 - 1020,4 5
18.02.2017 20:00:00 5,8 5,1 46 25 47 25 ZZW 1020,9 6
18.02.2017 19:00:00 5,6 4,8 41 22 43 23 - 1021,4 8
18.02.2017 18:00:00 5,0 4,2 48 26 47 25 - 1021,9 10
18.02.2017 17:00:00 5,3 4,4 50 27 50 27 - 1021,9 10
18.02.2017 16:00:00 5,4 4,9 36 19 50 27 ZZW 1022,1 13
18.02.2017 15:00:00 5,4 5,2 46 25 47 25 ZZW 1022,8 10
18.02.2017 14:00:00 4,9 4,9 39 21 43 23 ZZW 1023,5 10
18.02.2017 13:00:00 4,9 4,9 41 22 43 23 ZZW 1024,4 -
18.02.2017 12:00:00 4,4 4,4 42 23 43 23 ZZW 1024,7 0,4
18.02.2017 11:00:00 4,5 4,5 42 23 43 23 ZZW 1024,8 -
18.02.2017 10:00:00 4,2 4,2 37 20 36 19 ZZW 1025,1 0,5
18.02.2017 09:00:00 4,0 4,0 34 18 32 18 Z 1025,0 0,4

tt = temperatuur
td = dauwpunt
ff = windsnelheid
fx = windstoten
dd = windrichting
ppp = luchtdruk
vv = zicht

Weerstations in de omgeving